[[{"header":{"parameterUnit":"m.s-1","parameterCategory":1,"la1":30.2991,"la2":30.254,"lo1":-89.0895,"lo2":-89.0444,"dy":0.0017,"dx":0.0017,"nx":28,"ny":28,"refTime":"2025-05-23T03:00:00:Z","depth":0,"parameterNumber":2,"parameterNumberName":"U-component_of_WINDS"},"data":[0,0,0,0,0,0,0,0,0,0,0,0,0,0,0,0,0,0,0,0,0,0,0,0,0,0,0,0,0,0,0,0,0,0,0,0,0,0,0,0,0,0,0,0,0,0,0,0,0,0,0,0,0,0,0,0,0,0,-1.2511,-1.251,0,-1.2428,-1.2427,-1.2426,-1.2356,-1.2355,-1.2354,-1.2353,-1.2267,-1.2266,-1.2264,0,0,0,0,0,0,0,0,0,0,0,0,0,-1.2607,-1.2606,-1.2511,-1.251,-1.2509,-1.2429,-1.2427,-1.2426,-1.2356,-1.2355,-1.2354,-1.2353,-1.2268,-1.2266,-1.2264,0,0,0,0,0,0,0,0,0,0,0,0,0,-1.2549,-1.2605,-1.2511,-1.2464,-1.2459,-1.2429,-1.2427,-1.2426,-1.2356,-1.2355,-1.2354,-1.2353,-1.2268,-1.2266,-1.2264,-1.2273,0,0,-1.2257,-1.2256,0,0,0,0,0,0,0,0,-1.2553,-1.2546,-1.2472,-1.2467,-1.2462,-1.2401,-1.243,-1.2375,-1.2356,-1.2395,-1.2353,-1.2352,-1.2313,-1.2307,-1.2294,-1.2269,-1.2265,-1.2256,-1.2255,-1.2254,-1.2253,0,0,0,0,0,0,0,-1.2557,-1.2549,-1.2478,-1.2471,-1.2465,-1.2447,-1.2438,-1.2419,-1.2361,-1.2392,-1.2386,-1.2378,-1.231,-1.2296,-1.2291,-1.2264,-1.2257,-1.2254,-1.2253,-1.2252,-1.2243,-1.2244,0,0,0,0,0,0,-1.2568,-1.2553,-1.2481,-1.2476,-1.2505,-1.2446,-1.2436,-1.2422,-1.2361,-1.2351,-1.2379,-1.2375,-1.2301,-1.2294,-1.2288,-1.2294,-1.2254,-1.2252,-1.225,-1.2242,-1.2243,-1.2245,0,0,0,0,0,0,-1.257,-1.2562,-1.2484,-1.2513,-1.2501,-1.2446,-1.2431,-1.2421,-1.2407,-1.2352,-1.2341,-1.2376,-1.2299,-1.2291,-1.2277,-1.2291,-1.2251,-1.2249,-1.2241,-1.2242,-1.2244,-1.2308,0,0,0,0,0,0,-1.2574,-1.2564,-1.2566,-1.2513,-1.25,-1.2475,-1.2432,-1.242,-1.2403,-1.2397,-1.2346,-1.2336,-1.2298,-1.2281,-1.2275,-1.2287,-1.2247,-1.2239,-1.2241,-1.2244,-1.2305,-1.2312,-1.2318,0,0,0,0,0,-1.2577,-1.2587,-1.2567,-1.2559,-1.2503,-1.2476,-1.2469,-1.2425,-1.2405,-1.2407,-1.2372,-1.2338,-1.2291,-1.2281,-1.2273,-1.2284,-1.2238,-1.2241,-1.2243,-1.2302,-1.231,-1.2318,0,0,0,0,0,0,-1.2642,-1.2579,-1.2556,-1.2549,-1.2519,-1.2464,-1.2466,-1.2436,-1.241,-1.2405,-1.2351,-1.234,-1.2333,-1.2307,-1.2297,-1.229,-1.226,-1.2261,-1.2307,-1.2315,-1.2321,-1.2327,-1.2245,0,0,0,0,0,-1.2656,-1.264,-1.2586,-1.2585,-1.2571,-1.2522,-1.2508,-1.2478,-1.2443,-1.243,-1.2393,-1.2362,-1.2339,-1.2326,-1.2302,-1.2301,-1.2289,-1.2305,-1.2312,-1.2318,-1.2319,-1.2317,-1.2324,-1.2253,-1.2253,-1.2253,0,0,-1.2684,-1.2647,-1.264,-1.2597,-1.257,-1.2555,-1.2511,-1.2496,-1.2484,-1.2427,-1.2412,-1.2385,-1.2346,-1.2339,-1.2334,-1.2317,-1.2336,-1.2321,-1.2326,-1.2324,-1.232,-1.2327,-1.2333,-1.2255,-1.2255,-1.2255,0,0,-1.2726,-1.2697,-1.2694,-1.2668,-1.2627,-1.2595,-1.2594,-1.2545,-1.2524,-1.2509,-1.2466,-1.2451,-1.2414,-1.2388,-1.237,-1.2406,-1.2374,-1.24,-1.2435,-1.2433,-1.2439,-1.2443,-1.2456,-1.2461,-1.2402,-1.2402,-1.2402,0,-1.2765,-1.2741,-1.2695,-1.2684,-1.2666,-1.2616,-1.2612,-1.2589,-1.2543,-1.2532,-1.2514,-1.2468,-1.2438,-1.2424,-1.2433,-1.242,-1.2418,-1.2404,-1.2442,-1.2446,-1.245,-1.2461,-1.2466,-1.2405,-1.2405,-1.2404,-1.2404,0,-1.2791,-1.2775,-1.2777,-1.2734,-1.2717,-1.271,-1.2663,-1.2652,-1.2623,-1.2593,-1.2578,-1.2541,-1.2509,-1.2504,-1.2475,-1.2486,-1.2477,-1.2452,-1.242,-1.2461,-1.247,-1.2474,-1.241,-1.2409,-1.2408,-1.2407,0,0,-1.287,-1.2804,-1.2806,-1.2786,-1.2739,-1.2726,-1.2716,-1.2686,-1.2677,-1.2648,-1.2639,-1.261,-1.2586,-1.2566,-1.2534,-1.2534,-1.2564,-1.2508,-1.2506,-1.2519,-1.2574,-1.2593,-1.2599,-1.2543,-1.2544,-1.2544,-1.2577,0,-1.2904,-1.2884,-1.2844,-1.2836,-1.2821,-1.2774,-1.2766,-1.2736,-1.2708,-1.2691,-1.2659,-1.264,-1.261,-1.2598,-1.2595,-1.2561,-1.2574,-1.2558,-1.2533,-1.2533,-1.2544,-1.2604,-1.2623,-1.2656,-1.2581,-1.2581,-1.2582,0,-1.294,-1.2915,-1.2906,-1.2861,-1.2853,-1.2847,-1.2817,-1.2801,-1.2767,-1.2747,-1.2725,-1.2691,-1.2679,-1.2652,-1.2634,-1.2624,-1.2612,-1.2594,-1.2594,-1.2589,-1.2559,-1.26,-1.2665,-1.267,-1.2587,-1.2587,-1.2587,0,-1.2998,-1.2962,-1.2952,-1.2937,-1.2885,-1.2881,-1.2859,-1.2824,-1.2809,-1.2783,-1.2773,-1.2746,-1.2731,-1.2711,-1.267,-1.2654,-1.2658,-1.2626,-1.264,-1.2641,-1.2641,-1.2641,-1.2705,-1.2635,-1.2635,-1.2635,-1.2635,0,-1.304,-1.3036,-1.2978,-1.2971,-1.2967,-1.2921,-1.2918,-1.2891,-1.2861,-1.2849,-1.2807,-1.2796,-1.2744,-1.2728,-1.2697,-1.2687,-1.2681,-1.2664,-1.2655,-1.2667,-1.2669,-1.2657,-1.2653,-1.2637,-1.2636,-1.2636,-1.2636,0,-1.3103,-1.3063,-1.305,-1.3002,-1.299,-1.2988,-1.2947,-1.2939,-1.291,-1.2895,-1.2889,-1.2842,-1.2821,-1.278,-1.2747,-1.2726,-1.2723,-1.2709,-1.2735,-1.2729,-1.2745,-1.2744,-1.2802,-1.2807,-1.2736,-1.2737,-1.2737,0,-1.3131,-1.3128,-1.308,-1.3069,-1.3049,-1.3032,-1.3017,-1.2973,-1.2959,-1.2921,-1.2918,-1.2895,-1.2873,-1.2841,-1.2804,-1.2779,-1.2763,-1.2786,-1.2759,-1.2771,-1.2763,-1.2763,-1.2763,-1.2791,-1.2792,-1.2793,-1.2794,0,-1.3186,-1.3167,-1.3147,-1.3121,-1.3105,-1.3082,-1.3056,-1.305,-1.3,-1.2987,-1.2965,-1.2949,-1.2916,-1.2893,-1.2863,-1.284,-1.2809,-1.2803,-1.2804,-1.2815,-1.2831,-1.2822,-1.275,-1.2801,-1.28,-1.28,-1.2799,-1.2799,-1.3232,-1.3227,-1.3193,-1.3172,-1.3149,-1.3127,-1.3118,-1.3088,-1.3069,-1.3039,-1.3015,-1.2995,-1.2963,-1.2919,-1.2899,-1.2883,-1.2868,-1.287,-1.2871,-1.2872,-1.2877,-1.2835,-1.2878,-1.2877,-1.2877,-1.2877,-1.2877,0,-1.3284,-1.3261,-1.3242,-1.3209,-1.3193,-1.3166,-1.3138,-1.3126,-1.311,-1.3082,-1.3062,-1.3038,-1.3016,-1.2978,-1.2952,-1.2947,-1.2932,-1.2942,-1.2941,-1.2937,-1.2892,-1.2893,-1.2954,-1.2954,-1.2954,-1.2954,-1.2954,-1.2954,-1.3309,-1.3299,-1.3277,-1.3255,-1.3231,-1.3213,-1.3198,-1.3178,-1.3156,-1.3131,-1.3113,-1.3088,-1.3057,-1.3029,-1.3008,-1.2997,-1.2989,-1.3004,-1.2988,-1.2947,-1.294,-1.2933,-1.2933,-1.3002,-1.3003,-1.3034,-1.3035,-1.3035]},{"header":{"parameterUnit":"m.s-1","parameterCategory":1,"la1":30.2991,"la2":30.254,"lo1":-89.0895,"lo2":-89.0444,"dy":0.0017,"dx":0.0017,"nx":28,"ny":28,"refTime":"2025-05-23T03:00:00:Z","depth":0,"parameterNumber":3,"parameterNumberName":"V-component_of_WINDS"},"data":[0,0,0,0,0,0,0,0,0,0,0,0,0,0,0,0,0,0,0,0,0,0,0,0,0,0,0,0,0,0,0,0,0,0,0,0,0,0,0,0,0,0,0,0,0,0,0,0,0,0,0,0,0,0,0,0,0,0,3.6192,3.6192,0,3.6185,3.6185,3.6184,3.6195,3.6195,3.6196,3.6196,3.6184,3.6184,3.6183,0,0,0,0,0,0,0,0,0,0,0,0,0,3.6212,3.6212,3.6192,3.6192,3.6192,3.6185,3.6185,3.6184,3.6195,3.6195,3.6196,3.6196,3.6185,3.6184,3.6183,0,0,0,0,0,0,0,0,0,0,0,0,0,3.6204,3.6212,3.6192,3.6196,3.6196,3.6185,3.6185,3.6184,3.6195,3.6195,3.6196,3.6196,3.6185,3.6184,3.6183,3.6165,0,0,3.618,3.6179,0,0,0,0,0,0,0,0,3.6204,3.6203,3.6196,3.6196,3.6196,3.6191,3.6187,3.6178,3.6194,3.6195,3.6196,3.6197,3.6186,3.6185,3.6182,3.6165,3.6164,3.618,3.6179,3.6179,3.6178,0,0,0,0,0,0,0,3.6205,3.6203,3.6189,3.6195,3.6196,3.6198,3.6197,3.6186,3.6187,3.6195,3.6196,3.6195,3.6186,3.6183,3.6182,3.6164,3.618,3.6179,3.6178,3.6178,3.6134,3.6133,0,0,0,0,0,0,3.6205,3.6204,3.6189,3.6189,3.6202,3.6197,3.6196,3.6192,3.6187,3.6187,3.6195,3.6196,3.6184,3.6183,3.6182,3.6162,3.6179,3.6178,3.6177,3.6134,3.6134,3.6133,0,0,0,0,0,0,3.6206,3.6204,3.6189,3.6197,3.6195,3.6196,3.6191,3.6192,3.6189,3.6187,3.6187,3.6191,3.6185,3.6183,3.617,3.6162,3.6177,3.6176,3.6135,3.6134,3.6133,3.6122,0,0,0,0,0,0,3.6206,3.6204,3.6198,3.6196,3.6194,3.6179,3.6191,3.6191,3.6187,3.6189,3.6184,3.6184,3.6185,3.6171,3.6169,3.616,3.6176,3.6136,3.6135,3.6134,3.6123,3.612,3.6118,0,0,0,0,0,3.6207,3.6194,3.6198,3.6196,3.6187,3.6178,3.6177,3.618,3.6187,3.618,3.618,3.6184,3.6163,3.617,3.6167,3.6158,3.6136,3.6135,3.6134,3.6124,3.6121,3.6118,0,0,0,0,0,0,3.6192,3.6193,3.6198,3.6184,3.6181,3.618,3.6172,3.6177,3.6171,3.6172,3.6175,3.6174,3.616,3.6158,3.6166,3.6142,3.6151,3.6149,3.6144,3.6141,3.6139,3.614,3.6175,0,0,0,0,0,3.6188,3.6182,3.6182,3.617,3.6169,3.6171,3.6167,3.617,3.6166,3.6165,3.6163,3.6159,3.6151,3.6146,3.6139,3.6123,3.6122,3.6115,3.6113,3.6111,3.611,3.6102,3.6099,3.6129,3.6129,3.6129,0,0,3.6177,3.6177,3.6173,3.6167,3.6165,3.6158,3.6169,3.6161,3.6156,3.6163,3.6151,3.615,3.6145,3.6131,3.6125,3.6129,3.6102,3.611,3.6108,3.6107,3.61,3.6097,3.6095,3.6128,3.6128,3.6128,0,0,3.6155,3.6155,3.6145,3.6144,3.6142,3.6143,3.6141,3.614,3.614,3.6128,3.6134,3.6128,3.6114,3.6111,3.6108,3.6087,3.6091,3.6085,3.6073,3.6066,3.6064,3.6062,3.6055,3.6052,3.6083,3.6083,3.6083,0,3.6142,3.6133,3.6139,3.6131,3.6128,3.6137,3.6127,3.6125,3.612,3.6117,3.6123,3.6108,3.6105,3.6091,3.6086,3.6083,3.608,3.6085,3.6064,3.6062,3.606,3.6053,3.6051,3.6082,3.6082,3.6083,3.6083,0,3.6118,3.6111,3.6104,3.6101,3.6098,3.6088,3.6092,3.6088,3.6091,3.6092,3.6081,3.6079,3.6072,3.6069,3.6071,3.6055,3.6058,3.6064,3.6072,3.6056,3.605,3.6048,3.6081,3.6082,3.6082,3.6082,0,0,3.6085,3.6087,3.6084,3.6084,3.6083,3.6078,3.6069,3.6065,3.6061,3.6058,3.6051,3.6041,3.6046,3.6043,3.6045,3.6038,3.6023,3.6045,3.6045,3.6041,3.6006,3.6003,3.6,3.6026,3.6026,3.6025,3.6007,0,3.6063,3.6051,3.6056,3.6042,3.6037,3.6046,3.6038,3.6037,3.6038,3.6033,3.6034,3.6027,3.6034,3.6032,3.6026,3.6026,3.6016,3.6028,3.6019,3.6019,3.602,3.5996,3.5992,3.5974,3.6005,3.6004,3.6004,0,3.6036,3.6035,3.6021,3.6023,3.6021,3.6014,3.6011,3.6006,3.6005,3.6006,3.6003,3.6008,3.5999,3.6009,3.5997,3.6005,3.6002,3.6001,3.6001,3.6,3.601,3.5995,3.5969,3.5966,3.6,3.6,3.6001,0,3.6015,3.6008,3.6,3.5999,3.6001,3.5996,3.5997,3.5996,3.5993,3.599,3.5989,3.5984,3.5982,3.5978,3.5981,3.5987,3.5969,3.5978,3.597,3.597,3.5965,3.5965,3.5938,3.5963,3.5963,3.5963,3.5963,0,3.599,3.5981,3.599,3.5985,3.5975,3.5982,3.5972,3.5973,3.5973,3.5968,3.5975,3.5969,3.5974,3.5969,3.5971,3.5961,3.596,3.5961,3.5961,3.596,3.596,3.5958,3.5959,3.5962,3.5962,3.5962,3.5963,0,3.5964,3.5969,3.5961,3.5964,3.5965,3.5958,3.5961,3.5955,3.5958,3.5951,3.595,3.5953,3.5948,3.5951,3.5945,3.5946,3.5934,3.5937,3.5935,3.5936,3.5928,3.5928,3.5898,3.5895,3.5921,3.5921,3.5921,0,3.5948,3.5942,3.5946,3.5944,3.5944,3.594,3.5938,3.5944,3.5942,3.5941,3.5936,3.5932,3.5929,3.592,3.5921,3.5917,3.5919,3.5909,3.5918,3.5918,3.592,3.592,3.592,3.5907,3.5906,3.5906,3.5906,0,3.5919,3.5923,3.5921,3.592,3.5918,3.5917,3.5916,3.5914,3.5921,3.5917,3.5913,3.5911,3.5906,3.5902,3.5898,3.5898,3.5903,3.5903,3.5901,3.59,3.59,3.59,3.5931,3.5904,3.5904,3.5904,3.5904,3.5904,3.5898,3.5894,3.5896,3.5894,3.5895,3.5895,3.5891,3.5894,3.5891,3.5888,3.5892,3.5887,3.5887,3.5883,3.5883,3.5878,3.5882,3.5879,3.5878,3.5877,3.5877,3.5901,3.5878,3.5878,3.5878,3.5878,3.5878,0,3.587,3.5873,3.5871,3.5871,3.587,3.5877,3.5877,3.5875,3.5871,3.5871,3.5868,3.5864,3.586,3.5862,3.5859,3.5855,3.5858,3.5854,3.5855,3.5855,3.5873,3.5875,3.5853,3.5853,3.5853,3.5853,3.5853,3.5853,3.5856,3.5849,3.5854,3.5848,3.585,3.5846,3.5846,3.5846,3.5847,3.5842,3.584,3.5842,3.5843,3.584,3.5837,3.5838,3.5836,3.5832,3.5834,3.5851,3.5853,3.5855,3.5858,3.5832,3.5832,3.5816,3.5816,3.5816]}]]